SL-14 DEB, 45288

Orbit data source: Space-Track

SL-14 DEB, 45288 is space debris in LEO originally from a launch on Thu, 15 Aug 1991 UTC launched from the Plesetsk Missile And Space Complex (PKMTR). Debris objects in space refer to the collection of defunct objects orbiting the Earth. Examples of debris include non-operational satellites, rocket bodies, and fragments generated from explosions, collisions, or faulty payload assembly.

Loading next visibility...
SL-14 DEB details
Identifier
45288, 1991-056AA
Orbit
LEO
Last TLE update1 day ago
Origin
Flag of CISRosgidromet (CIS)
ManufacturerUnknown
MissionSpacecraft
Bus & MotorUnknown
MassUnknown
Launch date (UTC)
1991-08-15 (33 years ago)
Launch vehicleUnknown
Launch site
Plesetsk Missile And Space Complex (PKMTR)
Object type
Payload
Rocket body
Debris
Shape & HBRUnknown
Radar Cross SectionSmall (<0.1 m²)

Expand to show TLE details & history

TLE from 1 day ago
0 SL-14 DEB
1 45288U 91056AA  24360.44562695  .00004234  00000-0  15234-1 0  9993
2 45288  82.6208 247.9668 0225376  62.7336 299.6530 12.86305155226964
Epoch: 2024-12-25T10:41Z
Definitive object data (Epoch: 2024-12-25T10:41:42.168Z)
Latitude-0.00003°
Longitude-6.89817°
Altitude1,236.18 km
Speed7.275 km/s
True Right ascension16h 31m 52s
True Declination0° 00' 00"
Sunlit
Object was in daylight at TLE epoch
Visualization TLE readout
Latitude-59.98098°
Longitude-174.66308°
Altitude1,512.73 km
Speed7.027 km/s
Apparent Right ascension00h 53m 01s
Apparent Declination-66° 04' 23"
Sunlit
Object is in daylight
Visualization observer readout
Local Sidereal Time09:41:03
Azimuth209.767° SW
Elevation-52.628°
Doppler factor1
Orbital elements
Apogee altitude1,486.857 km
Perigee altitude1,140.155 km
Semi-major axis7,691.643 km
Eccentricity0.0225376
Inclination82.6208°
RAAN247.9668°
Arg. of periapsis62.7336°
True anomaly297.3775°
Mean anomaly299.653°
Eccentric anomaly298.51837°
Mean motion3.21747 °/min
BSTAR0.015234
Orbital period111.89 mins
Loading maneuver chart data...
Loading historical data...
Loading historical data...
Loading historical data...
Loading historical data...
Loading historical data...
Loading historical data...
Loading historical data...

SL-14 DEB Visibility forecast

Observer location: undefined°, undefined

Span
Click to sort rows by Start time (UTC) header in descending order
Start Az.
Max El. time (UTC)
Max El. Az.
Max El.
End time (UTC)
End Az.
12 mins2024-12-26 16:39:53.673Z155.192° SSE2024-12-26 16:45:53.673Z85.483° E34.371°2024-12-26 16:51:53.673Z21.955° NNE
10 mins2024-12-26 18:33:53.673Z234.738° WSW2024-12-26 18:38:53.673Z291.078° WNW26.908°2024-12-26 18:43:53.673Z343.578° N
5 mins2024-12-27 02:31:53.673Z48.191° ENE2024-12-27 02:33:53.673Z64.944° ENE12.893°2024-12-27 02:36:53.673Z88.523° E
13 mins2024-12-27 04:21:53.673Z356.875° N2024-12-27 04:27:53.673Z102.16° ESE44.307°2024-12-27 04:34:53.673Z168.339° S
7 mins2024-12-27 06:16:53.673Z304.417° NW2024-12-27 06:19:53.673Z276.852° WNW17.447°2024-12-27 06:23:53.673Z243.873° WSW
|